Hourly Data Report for September 12, 2012

HALIFAX STANFIELD INT'L A
NOVA SCOTIA

44°52'48.060" N
63°30'00.050" W
145.40 m
8202250
71395
YHZ

Download Data

Hourly Data (September 2012)
Hourly Data Report for September 12, 2012
TIME
LST
Temp Definition
°C
Dew Point Definition
°C
Rel Hum Definition
%
Precip. Amount Definition
mm

Wind Dir Definition
10's deg

Wind Spd Definition
km/h
Visibility Definition
km
Stn Press Definition
kPa
Hmdx Definition


Wind Chill Definition


Weather Definition


00:00 12.7 8.3 75   28 11 24.1 100.50     Clear
01:00 12.9 7.9 72   29 9 24.1 100.55     Clear
02:00 12.4 7.8 73   27 7 24.1 100.57     Clear
03:00 12.1 7.7 74   28 9 24.1 100.58     Clear
04:00 12.1 7.6 74   28 9 24.1 100.60     Clear
05:00 11.4 7.4 76   29 7 24.1 100.65     Mainly Clear
06:00 11.4 7.2 75   28 6 24.1 100.74     Clear
07:00 13.5 8.9 74   31 6 24.1 100.78     Clear
08:00 15.0 9.4 69   26 6 24.1 100.81     Clear
09:00 17.5 10.0 61   26 6 24.1 100.86     Clear
10:00 19.7 9.1 50   25 11 24.1 100.88     Clear
11:00 20.7 8.8 46   23 17 24.1 100.89     Clear
12:00 21.4 8.9 45   32 13 24.1 100.90     Clear
13:00 21.9 8.9 43   22 9 24.1 100.88     Clear
14:00 21.7 9.0 44   28 9 24.1 100.87     Clear
15:00 22.8 8.7 41   25 9 24.1 100.87     Clear
16:00 22.5 9.6 44   23 15 24.1 100.86     Clear
17:00 20.9 11.6 55   22 17 24.1 100.89     Clear
18:00 18.0 10.9 63   21 15 24.1 100.93     Clear
19:00 15.2 10.3 73   17 7 24.1 100.95     Mainly Clear
20:00 14.9 10.7 76     0 24.1 101.01     Clear
21:00 14.6 10.6 77     0 24.1 101.02     Clear
22:00 13.5 11.0 85   15 7 24.1 101.03     Clear
23:00 13.0 11.3 89   19 7 24.1 101.06     Clear

Notes on Data Quality.

Legend

  • E = Estimated
  • M = Missing
  • NA = Not Available*
  • [empty] = Indicates an unobserved value
Date modified: